TimeEDT,TemperatureF,Dew PointF,Humidity,Sea Level PressureIn,VisibilityMPH,Wind Direction,Wind SpeedMPH,Gust SpeedMPH,PrecipitationIn,Events,Conditions,WindDirDegrees,DateUTC
12:15 AM,66.2,64.4,94,29.94,10.0,Calm,Calm,-,N/A,,Clear,0,2012-09-07 04:15:00
12:35 AM,64.4,62.6,94,29.94,6.0,Calm,Calm,-,N/A,,Clear,0,2012-09-07 04:35:00
12:55 AM,64.4,64.4,100,29.94,10.0,Calm,Calm,-,N/A,,Clear,0,2012-09-07 04:55:00
1:15 AM,64.4,64.4,100,29.94,6.0,Calm,Calm,-,N/A,,Clear,0,2012-09-07 05:15:00
1:35 AM,64.4,62.6,94,29.94,8.0,Calm,Calm,-,N/A,,Clear,0,2012-09-07 05:35:00
1:55 AM,64.4,64.4,100,29.94,8.0,Calm,Calm,-,N/A,,Clear,0,2012-09-07 05:55:00
2:15 AM,64.4,64.4,100,29.94,8.0,WNW,4.6,-,N/A,,Clear,290,2012-09-07 06:15:00
2:35 AM,64.4,64.4,100,29.92,8.0,Calm,Calm,-,N/A,,Clear,0,2012-09-07 06:35:00
2:55 AM,64.4,62.6,94,29.91,10.0,Calm,Calm,-,N/A,,Clear,0,2012-09-07 06:55:00
3:15 AM,64.4,62.6,94,29.91,8.0,Calm,Calm,-,N/A,,Clear,0,2012-09-07 07:15:00
3:35 AM,64.4,62.6,94,29.91,5.0,Calm,Calm,-,N/A,,Clear,0,2012-09-07 07:35:00
3:55 AM,64.4,64.4,100,29.92,10.0,Calm,Calm,-,N/A,,Clear,0,2012-09-07 07:55:00
4:15 AM,64.4,62.6,94,29.91,10.0,NW,3.5,-,N/A,,Clear,310,2012-09-07 08:15:00
4:35 AM,68.0,66.2,94,29.91,10.0,Calm,Calm,-,N/A,,Clear,0,2012-09-07 08:35:00
4:55 AM,64.4,64.4,100,29.92,10.0,Calm,Calm,-,N/A,,Clear,0,2012-09-07 08:55:00
5:15 AM,64.4,64.4,100,29.93,8.0,SE,5.8,-,N/A,,Clear,140,2012-09-07 09:15:00
5:35 AM,66.2,64.4,94,29.94,7.0,Calm,Calm,-,N/A,,Clear,0,2012-09-07 09:35:00
5:55 AM,66.2,66.2,100,29.94,9.0,SSE,3.5,-,N/A,,Clear,160,2012-09-07 09:55:00
6:15 AM,66.2,66.2,100,29.94,7.0,Calm,Calm,-,N/A,,Clear,0,2012-09-07 10:15:00
6:35 AM,66.2,64.4,94,29.95,1.8,Calm,Calm,-,N/A,,Clear,0,2012-09-07 10:35:00
6:55 AM,64.4,64.4,100,29.95,7.0,Calm,Calm,-,N/A,,Clear,0,2012-09-07 10:55:00
7:15 AM,66.2,66.2,100,29.96,9.0,Calm,Calm,-,N/A,,Clear,0,2012-09-07 11:15:00
7:35 AM,68.0,66.2,94,29.96,10.0,Calm,Calm,-,N/A,,Clear,0,2012-09-07 11:35:00
7:55 AM,71.6,71.6,100,29.95,10.0,South,4.6,-,N/A,,Clear,170,2012-09-07 11:55:00
8:15 AM,73.4,71.6,94,29.95,10.0,South,6.9,-,N/A,,Clear,170,2012-09-07 12:15:00
8:35 AM,75.2,71.6,89,29.95,10.0,South,6.9,-,N/A,,Clear,170,2012-09-07 12:35:00
8:55 AM,75.2,71.6,89,29.96,10.0,South,5.8,-,N/A,,Clear,170,2012-09-07 12:55:00
9:15 AM,77.0,71.6,83,29.97,10.0,SSW,4.6,-,N/A,,Clear,200,2012-09-07 13:15:00
9:35 AM,78.8,71.6,78,29.97,-9999.0,South,4.6,-,N/A,,Clear,180,2012-09-07 13:35:00
9:55 AM,78.8,71.6,78,29.97,-9999.0,Calm,Calm,-,N/A,,Clear,0,2012-09-07 13:55:00
10:15 AM,78.8,71.6,78,29.97,-9999.0,South,4.6,-,N/A,,Clear,170,2012-09-07 14:15:00
10:35 AM,80.6,71.6,74,29.97,-9999.0,South,6.9,-,N/A,,Clear,180,2012-09-07 14:35:00
10:55 AM,80.6,71.6,74,29.97,-9999.0,SSE,4.6,-,N/A,,Clear,160,2012-09-07 14:55:00
11:15 AM,80.6,71.6,74,29.97,-9999.0,SSW,5.8,-,N/A,,Clear,200,2012-09-07 15:15:00
11:35 AM,80.6,69.8,70,29.97,-9999.0,SW,8.1,-,N/A,,Clear,220,2012-09-07 15:35:00
11:55 AM,82.4,69.8,66,29.97,-9999.0,SSW,8.1,-,N/A,,Clear,210,2012-09-07 15:55:00
12:15 PM,80.6,68.0,65,29.97,-9999.0,SW,10.4,-,N/A,,Clear,220,2012-09-07 16:15:00
12:35 PM,80.6,66.2,61,29.97,-9999.0,SSW,9.2,-,N/A,,Clear,210,2012-09-07 16:35:00
12:55 PM,82.4,64.4,54,29.97,-9999.0,SSW,9.2,-,N/A,,Clear,210,2012-09-07 16:55:00
1:15 PM,82.4,64.4,54,29.96,-9999.0,South,12.7,17.3,N/A,,Clear,170,2012-09-07 17:15:00
1:35 PM,84.2,66.2,55,29.97,-9999.0,SSE,11.5,-,N/A,,Clear,160,2012-09-07 17:35:00
1:55 PM,82.4,64.4,54,29.96,-9999.0,South,10.4,-,N/A,,Clear,170,2012-09-07 17:55:00
2:15 PM,82.4,64.4,54,29.96,-9999.0,SSE,11.5,-,N/A,,Clear,160,2012-09-07 18:15:00
2:35 PM,82.4,64.4,54,29.95,-9999.0,South,12.7,-,N/A,,Clear,170,2012-09-07 18:35:00
2:55 PM,82.4,66.2,58,29.94,-9999.0,SSE,11.5,-,N/A,,Clear,160,2012-09-07 18:55:00
3:15 PM,82.4,66.2,58,29.94,-9999.0,South,10.4,-,N/A,,Clear,170,2012-09-07 19:15:00
3:35 PM,82.4,66.2,58,29.94,-9999.0,South,10.4,-,N/A,,Clear,180,2012-09-07 19:35:00
3:55 PM,82.4,64.4,54,29.94,-9999.0,South,11.5,-,N/A,,Clear,180,2012-09-07 19:55:00
4:15 PM,82.4,66.2,58,29.93,-9999.0,South,11.5,16.1,N/A,,Clear,180,2012-09-07 20:15:00
4:35 PM,82.4,66.2,58,29.93,-9999.0,South,11.5,-,N/A,,Clear,170,2012-09-07 20:35:00
4:55 PM,82.4,66.2,58,29.93,-9999.0,SSE,11.5,-,N/A,,Clear,160,2012-09-07 20:55:00
5:15 PM,82.4,64.4,54,29.93,-9999.0,South,10.4,-,N/A,,Clear,180,2012-09-07 21:15:00
5:55 PM,80.6,66.2,61,29.92,-9999.0,SSE,10.4,-,N/A,,Clear,160,2012-09-07 21:55:00
6:15 PM,78.8,66.2,65,29.92,-9999.0,SSE,10.4,-,N/A,,Clear,160,2012-09-07 22:15:00
6:35 PM,78.8,68.0,69,29.92,10.0,SSE,11.5,-,N/A,,Clear,160,2012-09-07 22:35:00
6:55 PM,75.2,69.8,83,29.91,10.0,South,9.2,-,N/A,,Clear,170,2012-09-07 22:55:00
7:15 PM,75.2,69.8,83,29.92,10.0,South,8.1,-,N/A,,Clear,170,2012-09-07 23:15:00
7:35 PM,75.2,69.8,83,29.92,10.0,South,6.9,-,N/A,,Clear,180,2012-09-07 23:35:00
7:55 PM,73.4,69.8,88,29.93,10.0,South,6.9,-,N/A,,Clear,170,2012-09-07 23:55:00
8:15 PM,73.4,69.8,88,29.93,10.0,South,9.2,-,N/A,,Clear,170,2012-09-08 00:15:00
8:35 PM,73.4,71.6,94,29.93,10.0,South,9.2,-,N/A,,Clear,170,2012-09-08 00:35:00
8:55 PM,73.4,71.6,94,29.93,10.0,SSE,8.1,-,N/A,,Clear,160,2012-09-08 00:55:00
9:15 PM,73.4,71.6,94,29.93,10.0,South,8.1,-,N/A,,Clear,170,2012-09-08 01:15:00
9:35 PM,73.4,71.6,94,29.93,10.0,South,10.4,-,N/A,,Clear,170,2012-09-08 01:35:00
9:55 PM,73.4,71.6,94,29.93,10.0,South,6.9,-,N/A,,Clear,170,2012-09-08 01:55:00
10:15 PM,73.4,71.6,94,29.92,10.0,South,8.1,-,N/A,,Clear,170,2012-09-08 02:15:00
10:35 PM,73.4,71.6,94,29.91,10.0,South,9.2,-,N/A,,Clear,170,2012-09-08 02:35:00
10:55 PM,73.4,71.6,94,29.90,10.0,SSE,9.2,-,N/A,,Clear,160,2012-09-08 02:55:00
11:15 PM,73.4,71.6,94,29.89,10.0,SSE,8.1,-,N/A,,Clear,160,2012-09-08 03:15:00
11:35 PM,73.4,71.6,94,29.88,10.0,SSE,9.2,-,N/A,,Clear,150,2012-09-08 03:35:00
11:55 PM,73.4,71.6,94,29.87,10.0,SSE,11.5,-,N/A,,Clear,150,2012-09-08 03:55:00